,,,PA_Meas_PMT16A,,PR_Meas_QMR101_102,,RH_Meas_QMH101,,SR_Meas_QMS101,,TA_Meas_QMH101,,GenWind,,GenWind,
date,time,status,PA,status,PR,status,RH,status,SR,status,TA,status,DirAvg,status,SpdAvg,
2011-10-08, 00:00:04,VALID,1005.21,VALID,0,VALID,94.4379,VALID,0,VALID,24.6361,VALID,20,VALID,1.93516,
2011-10-08, 00:01:04,VALID,1005.19,VALID,0,VALID,94.4532,VALID,0.0815089,VALID,24.6556,VALID,358,VALID,1.33438,
2011-10-08, 00:02:04,VALID,1005.13,VALID,0,VALID,94.2624,VALID,0,VALID,24.6361,VALID,3,VALID,2.01758,
2011-10-08, 00:03:04,VALID,1005.1,VALID,0,VALID,93.7055,VALID,0,VALID,24.6166,VALID,354,VALID,2.80391,
2011-10-08, 00:04:04,VALID,1005.1,VALID,0,VALID,93.82,VALID,0.0815089,VALID,24.6556,VALID,24,VALID,2.33437,
2011-10-08, 00:05:04,VALID,1005.08,VALID,0,VALID,93.5758,VALID,0,VALID,24.6964,VALID,358,VALID,1.94062,
2011-10-08, 00:06:04,VALID,1005.09,VALID,0,VALID,93.7513,VALID,0,VALID,24.6556,VALID,11,VALID,1.45938,
2011-10-08, 00:07:04,VALID,1005.08,VALID,0,VALID,93.9115,VALID,0,VALID,24.6361,VALID,16,VALID,1.37812,
2011-10-08, 00:08:04,VALID,1005.09,VALID,0,VALID,93.5911,VALID,0,VALID,24.6166,VALID,23,VALID,2.21211,
2011-10-08, 00:09:04,VALID,1005.1,VALID,0,VALID,93.8123,VALID,0.0815089,VALID,24.6148,VALID,4,VALID,1.52656,
2011-10-08, 00:10:04,VALID,1005.11,VALID,0,VALID,93.4919,VALID,0.0815089,VALID,24.5953,VALID,4,VALID,1.73555,
2011-10-08, 00:11:04,VALID,1005.11,VALID,0,VALID,93.5835,VALID,0.0815089,VALID,24.5758,VALID,11,VALID,1.6125,
2011-10-08, 00:12:04,VALID,1005.1,VALID,0,VALID,93.2402,VALID,0,VALID,24.5972,VALID,31,VALID,1.89609,
2011-10-08, 00:13:04,VALID,1005.09,VALID,0,VALID,93.0113,VALID,0,VALID,24.6166,VALID,9,VALID,1.72773,
2011-10-08, 00:14:04,VALID,1005.15,VALID,0,VALID,93.1029,VALID,0.0815089,VALID,24.6361,VALID,11,VALID,1.49961,
2011-10-08, 00:15:04,VALID,1005.15,VALID,0,VALID,93.0342,VALID,0.0815089,VALID,24.6361,VALID,21,VALID,1.68906,
2011-10-08, 00:16:04,VALID,1005.18,VALID,0,VALID,93.1715,VALID,0.0815089,VALID,24.5758,VALID,358,VALID,1.58242,
2011-10-08, 00:17:04,VALID,1005.14,VALID,0,VALID,92.7748,VALID,0.0815089,VALID,24.5972,VALID,10,VALID,2.28789,
2011-10-08, 00:18:04,VALID,1005.14,VALID,0,VALID,93.0876,VALID,0,VALID,24.5777,VALID,15,VALID,1.58477,
2011-10-08, 00:19:04,VALID,1005.14,VALID,0,VALID,93.2097,VALID,0,VALID,24.5388,VALID,357,VALID,1.30313,
2011-10-08, 00:20:04,VALID,1005.18,VALID,0,VALID,93.1868,VALID,0,VALID,24.4998,VALID,10,VALID,1.64219,
2011-10-08, 00:21:04,VALID,1005.18,VALID,0,VALID,93.0495,VALID,0,VALID,24.4804,VALID,13,VALID,1.84023,
2011-10-08, 00:22:04,VALID,1005.2,VALID,0,VALID,92.9121,VALID,0,VALID,24.4804,VALID,9,VALID,1.89805,
2011-10-08, 00:23:04,VALID,1005.2,VALID,0,VALID,93.0113,VALID,0.0815089,VALID,24.4804,VALID,2,VALID,1.00508,
2011-10-08, 00:24:04,VALID,1005.23,VALID,0,VALID,92.7214,VALID,0,VALID,24.4804,VALID,17,VALID,1.52891,
2011-10-08, 00:25:04,VALID,1005.21,VALID,0,VALID,93.0571,VALID,0,VALID,24.4804,VALID,9,VALID,0.919141,
2011-10-08, 00:26:04,VALID,1005.2,VALID,0,VALID,93.2097,VALID,0,VALID,24.4609,VALID,44,VALID,0.881641,
2011-10-08, 00:27:04,VALID,1005.22,VALID,0,VALID,93.1639,VALID,0,VALID,24.422,VALID,18,VALID,0.942578,
2011-10-08, 00:28:04,VALID,1005.18,VALID,0,VALID,93.4843,VALID,0,VALID,24.4025,VALID,13,VALID,0.679297,
2011-10-08, 00:29:04,VALID,1005.13,VALID,0,VALID,93.5758,VALID,0,VALID,24.383,VALID,17,VALID,1.00352,
2011-10-08, 00:30:04,VALID,1005.1,VALID,0,VALID,93.6521,VALID,0,VALID,24.3441,VALID,351,VALID,0.999609,
2011-10-08, 00:31:04,VALID,1005.08,VALID,0,VALID,93.4996,VALID,0.0815089,VALID,24.2839,VALID,349,VALID,1.02813,
2011-10-08, 00:32:04,VALID,1005.04,VALID,0,VALID,92.5993,VALID,0,VALID,24.2857,VALID,349,VALID,2.2207,
2011-10-08, 00:33:04,VALID,1005.05,VALID,0,VALID,93.0037,VALID,0,VALID,24.3459,VALID,352,VALID,1.3293,
2011-10-08, 00:34:04,VALID,1005,VALID,0,VALID,92.4849,VALID,0,VALID,24.3459,VALID,24,VALID,1.72812,
2011-10-08, 00:35:04,VALID,1004.98,VALID,0,VALID,91.7068,VALID,0,VALID,24.3459,VALID,17,VALID,2.47187,
2011-10-08, 00:36:04,VALID,1005,VALID,0,VALID,91.8288,VALID,0,VALID,24.4238,VALID,13,VALID,1.59023,
2011-10-08, 00:37:04,VALID,1005,VALID,0,VALID,91.9585,VALID,0,VALID,24.4025,VALID,354,VALID,1.54336,
2011-10-08, 00:38:04,VALID,1004.99,VALID,0,VALID,91.6229,VALID,0,VALID,24.4025,VALID,355,VALID,1.98242,
2011-10-08, 00:39:04,VALID,1005,VALID,0,VALID,91.5084,VALID,0,VALID,24.4238,VALID,353,VALID,2.04648,
2011-10-08, 00:40:04,VALID,1004.98,VALID,0,VALID,91.1117,VALID,0,VALID,24.4238,VALID,24,VALID,1.88008,
2011-10-08, 00:41:04,VALID,1005.02,VALID,0,VALID,91.0125,VALID,0,VALID,24.4628,VALID,9,VALID,1.98828,
2011-10-08, 00:42:04,VALID,1004.99,VALID,0,VALID,91.2338,VALID,0,VALID,24.4628,VALID,344,VALID,1.70625,
2011-10-08, 00:43:04,VALID,1004.98,VALID,0,VALID,90.982,VALID,0,VALID,24.4433,VALID,10,VALID,1.75391,
2011-10-08, 00:44:04,VALID,1004.95,VALID,0,VALID,91.0202,VALID,0,VALID,24.4628,VALID,26,VALID,2.0043,
2011-10-08, 00:45:04,VALID,1004.96,VALID,0,VALID,90.7074,VALID,0,VALID,24.4822,VALID,12,VALID,2.04648,
2011-10-08, 00:46:04,VALID,1004.96,VALID,0,VALID,90.4022,VALID,0,VALID,24.4822,VALID,13,VALID,1.70391,
2011-10-08, 00:47:04,VALID,1004.92,VALID,0,VALID,90.4099,VALID,0,VALID,24.4804,VALID,359,VALID,1.91797,
2011-10-08, 00:48:04,VALID,1004.91,VALID,0,VALID,90.8981,VALID,0,VALID,24.5212,VALID,355,VALID,0.977734,
2011-10-08, 00:49:04,VALID,1004.89,VALID,0,VALID,90.1886,VALID,0,VALID,24.5017,VALID,10,VALID,1.55781,
2011-10-08, 00:50:04,VALID,1004.88,VALID,0,VALID,90.6845,VALID,0,VALID,24.5406,VALID,351,VALID,0.889844,
2011-10-08, 00:51:04,VALID,1004.86,VALID,0,VALID,90.5014,VALID,0,VALID,24.4804,VALID,354,VALID,1.29609,
2011-10-08, 00:52:04,VALID,1004.81,VALID,0,VALID,90.5396,VALID,0,VALID,24.5017,VALID,357,VALID,1.17305,
2011-10-08, 00:53:04,VALID,1004.81,VALID,0,VALID,91.1575,VALID,0,VALID,24.4804,VALID,346,VALID,1.02031,
2011-10-08, 00:54:04,VALID,1004.79,VALID,0,VALID,91.127,VALID,0,VALID,24.4433,VALID,314,VALID,0.801172,
2011-10-08, 00:55:04,VALID,1004.74,VALID,0,VALID,91.6991,VALID,0,VALID,24.4646,VALID,332,VALID,0.167187,
2011-10-08, 00:56:04,VALID,1004.74,VALID,0,VALID,92.134,VALID,0,VALID,24.4238,VALID,336,VALID,0.339844,
2011-10-08, 00:57:04,VALID,1004.72,VALID,0,VALID,92.3247,VALID,0,VALID,24.383,VALID,300,VALID,0.311719,
2011-10-08, 00:58:04,VALID,1004.72,VALID,0,VALID,92.0577,VALID,0,VALID,24.3654,VALID,334,VALID,0.663672,
2011-10-08, 00:59:04,VALID,1004.71,VALID,0,VALID,92.0958,VALID,0,VALID,24.3459,VALID,341,VALID,0.658594,
2011-10-08, 01:00:04,VALID,1004.71,VALID,0,VALID,91.3482,VALID,0,VALID,24.3265,VALID,344,VALID,1.4418,
2011-10-08, 01:01:04,VALID,1004.75,VALID,0,VALID,91.0507,VALID,0,VALID,24.3459,VALID,347,VALID,1.6418,
2011-10-08, 01:02:04,VALID,1004.75,VALID,0,VALID,91.2872,VALID,0,VALID,24.3849,VALID,319,VALID,0.583984,
2011-10-08, 01:03:04,VALID,1004.77,VALID,0,VALID,91.2033,VALID,0,VALID,24.4043,VALID,360,VALID,0.65625,
2011-10-08, 01:04:04,VALID,1004.79,VALID,0,VALID,91.0583,VALID,0,VALID,24.4025,VALID,340,VALID,1.14961,
2011-10-08, 01:05:04,VALID,1004.83,VALID,0,VALID,90.6769,VALID,0,VALID,24.4025,VALID,338,VALID,1.40078,
2011-10-08, 01:06:04,VALID,1004.83,VALID,0,VALID,91.455,VALID,0,VALID,24.422,VALID,334,VALID,0.498047,
2011-10-08, 01:07:04,VALID,1004.85,VALID,0,VALID,90.6845,VALID,0,VALID,24.3812,VALID,7,VALID,1.6625,
2011-10-08, 01:08:04,VALID,1004.87,VALID,0,VALID,90.9515,VALID,0,VALID,24.4396,VALID,351,VALID,1.4668,
2011-10-08, 01:09:04,VALID,1004.87,VALID,0,VALID,91.2948,VALID,0,VALID,24.4609,VALID,352,VALID,0.951172,
2011-10-08, 01:10:04,VALID,1004.86,VALID,0,VALID,91.3101,VALID,0.0815089,VALID,24.4201,VALID,1,VALID,0.6625,
2011-10-08, 01:11:04,VALID,1004.86,VALID,0,VALID,91.867,VALID,0.0815089,VALID,24.4006,VALID,360,VALID,0.596875,
2011-10-08, 01:12:04,VALID,1004.89,VALID,0,VALID,91.5542,VALID,0.0815089,VALID,24.3422,VALID,345,VALID,0.810938,
2011-10-08, 01:13:04,VALID,1004.88,VALID,0,VALID,91.5161,VALID,0.0815089,VALID,24.3617,VALID,344,VALID,1.14531,
2011-10-08, 01:14:04,VALID,1004.85,VALID,0,VALID,91.928,VALID,0.0815089,VALID,24.3404,VALID,340,VALID,0.404687,
2011-10-08, 01:15:04,VALID,1004.84,VALID,0,VALID,91.8365,VALID,0,VALID,24.3636,VALID,14,VALID,1.28789,
2011-10-08, 01:16:04,VALID,1004.84,VALID,0,VALID,91.7602,VALID,0,VALID,24.3441,VALID,349,VALID,0.760547,
2011-10-08, 01:17:04,VALID,1004.78,VALID,0,VALID,91.0354,VALID,0,VALID,24.3636,VALID,338,VALID,1.97148,
2011-10-08, 01:18:04,VALID,1004.79,VALID,0,VALID,91.3101,VALID,0,VALID,24.3617,VALID,349,VALID,0.946875,
2011-10-08, 01:19:04,VALID,1004.77,VALID,0,VALID,91.6763,VALID,0.0815089,VALID,24.3812,VALID,355,VALID,1.09648,
2011-10-08, 01:20:04,VALID,1004.75,VALID,0,VALID,91.6076,VALID,0,VALID,24.383,VALID,348,VALID,1.07539,
2011-10-08, 01:21:04,VALID,1004.71,VALID,0,VALID,90.9668,VALID,0,VALID,24.3422,VALID,348,VALID,1.65195,
2011-10-08, 01:22:04,VALID,1004.71,VALID,0,VALID,90.4633,VALID,0,VALID,24.383,VALID,345,VALID,1.32422,
2011-10-08, 01:23:04,VALID,1004.68,VALID,0,VALID,90.5777,VALID,0,VALID,24.383,VALID,349,VALID,1.20703,
2011-10-08, 01:24:04,VALID,1004.66,VALID,0,VALID,91.1041,VALID,0.0815089,VALID,24.383,VALID,350,VALID,1.18828,
2011-10-08, 01:25:04,VALID,1004.65,VALID,0,VALID,90.7913,VALID,0,VALID,24.3422,VALID,349,VALID,1.27266,
2011-10-08, 01:26:04,VALID,1004.61,VALID,0,VALID,89.441,VALID,0,VALID,24.3228,VALID,345,VALID,2.39609,
2011-10-08, 01:27:04,VALID,1004.63,VALID,0,VALID,90.1276,VALID,0,VALID,24.3812,VALID,354,VALID,1.39766,
2011-10-08, 01:28:04,VALID,1004.62,VALID,0,VALID,89.6927,VALID,0,VALID,24.3617,VALID,357,VALID,1.49063,
2011-10-08, 01:29:04,VALID,1004.6,VALID,0,VALID,89.4028,VALID,0,VALID,24.4025,VALID,354,VALID,1.6043,
2011-10-08, 01:30:04,VALID,1004.58,VALID,0,VALID,89.0595,VALID,0,VALID,24.4025,VALID,344,VALID,1.54609,
2011-10-08, 01:31:04,VALID,1004.56,VALID,0,VALID,88.8154,VALID,0.0815089,VALID,24.4201,VALID,351,VALID,1.31875,
2011-10-08, 01:32:04,VALID,1004.54,VALID,0,VALID,88.9985,VALID,0,VALID,24.4201,VALID,348,VALID,1.43242,
2011-10-08, 01:33:04,VALID,1004.49,VALID,0,VALID,89.5936,VALID,0,VALID,24.4201,VALID,355,VALID,0.967188,
2011-10-08, 01:34:04,VALID,1004.51,VALID,0,VALID,89.2426,VALID,0.0815089,VALID,24.3617,VALID,348,VALID,1.23984,
2011-10-08, 01:35:04,VALID,1004.47,VALID,0,VALID,88.6247,VALID,0,VALID,24.4025,VALID,340,VALID,1.36758,
2011-10-08, 01:36:04,VALID,1004.45,VALID,0,VALID,87.7703,VALID,0.0815089,VALID,24.4804,VALID,358,VALID,1.57227,
2011-10-08, 01:37:04,VALID,1004.42,VALID,0,VALID,88.0754,VALID,0.0815089,VALID,24.4785,VALID,341,VALID,1.48984,
2011-10-08, 01:38:04,VALID,1004.4,VALID,0,VALID,86.9692,VALID,0.0815089,VALID,24.4804,VALID,346,VALID,1.87188,
2011-10-08, 01:39:04,VALID,1004.39,VALID,0,VALID,86.4276,VALID,0.0815089,VALID,24.5388,VALID,356,VALID,2.17227,
2011-10-08, 01:40:04,VALID,1004.39,VALID,0,VALID,86.1377,VALID,0.0815089,VALID,24.5758,VALID,344,VALID,1.97969,
2011-10-08, 01:41:04,VALID,1004.37,VALID,0,VALID,86.6183,VALID,0,VALID,24.6148,VALID,347,VALID,1.69141,
2011-10-08, 01:42:04,VALID,1004.36,VALID,0,VALID,85.596,VALID,0.0815089,VALID,24.675,VALID,18,VALID,2.04688,
2011-10-08, 01:43:04,VALID,1004.36,VALID,0,VALID,85.8402,VALID,0.0815089,VALID,24.6926,VALID,349,VALID,1.3293,
2011-10-08, 01:44:04,VALID,1004.35,VALID,0,VALID,86.1758,VALID,0.0815089,VALID,24.714,VALID,355,VALID,1.425,
2011-10-08, 01:45:04,VALID,1004.34,VALID,0,VALID,86.1072,VALID,0,VALID,24.6732,VALID,6,VALID,1.77227,
2011-10-08, 01:46:04,VALID,1004.33,VALID,0,VALID,84.8408,VALID,0,VALID,24.7335,VALID,360,VALID,1.56172,
2011-10-08, 01:47:04,VALID,1004.29,VALID,0,VALID,85.6876,VALID,0,VALID,24.7919,VALID,354,VALID,0.878906,
2011-10-08, 01:48:04,VALID,1004.27,VALID,0,VALID,85.7562,VALID,0,VALID,24.7724,VALID,348,VALID,1.52266,
2011-10-08, 01:49:04,VALID,1004.26,VALID,0,VALID,85.329,VALID,0.0815089,VALID,24.7121,VALID,348,VALID,1.34414,
2011-10-08, 01:50:04,VALID,1004.19,VALID,0,VALID,86.4962,VALID,0.0815089,VALID,24.6926,VALID,357,VALID,0.791406,
2011-10-08, 01:51:04,VALID,1004.16,VALID,0,VALID,86.42,VALID,0.0815089,VALID,24.675,VALID,359,VALID,0.992578,
2011-10-08, 01:52:04,VALID,1004.13,VALID,0,VALID,86.3894,VALID,0.0815089,VALID,24.6556,VALID,14,VALID,1.32656,
2011-10-08, 01:53:04,VALID,1004.08,VALID,0,VALID,86.809,VALID,0.0815089,VALID,24.6361,VALID,355,VALID,0.949219,
2011-10-08, 01:54:04,VALID,1004.04,VALID,0,VALID,85.0849,VALID,0.0815089,VALID,24.6148,VALID,12,VALID,1.98945,
2011-10-08, 01:55:04,VALID,1004.01,VALID,0,VALID,85.8783,VALID,0.0815089,VALID,24.7121,VALID,359,VALID,1.14375,
2011-10-08, 01:56:04,VALID,1004,VALID,0,VALID,84.4899,VALID,0.0815089,VALID,24.751,VALID,353,VALID,2.11992,
2011-10-08, 01:57:04,VALID,1003.97,VALID,0,VALID,85.1307,VALID,0.0815089,VALID,24.79,VALID,356,VALID,1.40781,
2011-10-08, 01:58:04,VALID,1003.92,VALID,0,VALID,84.6043,VALID,0.0815089,VALID,24.79,VALID,352,VALID,1.5668,
2011-10-08, 01:59:04,VALID,1003.96,VALID,0,VALID,84.9628,VALID,0.0815089,VALID,24.8289,VALID,316,VALID,0.734375,
2011-10-08, 02:00:04,VALID,1003.95,VALID,0,VALID,85.4511,VALID,0.0815089,VALID,24.8113,VALID,344,VALID,0.823047,
2011-10-08, 02:01:04,VALID,1003.96,VALID,0,VALID,86.008,VALID,0,VALID,24.7335,VALID,339,VALID,0.935547,
2011-10-08, 02:02:04,VALID,1003.99,VALID,0,VALID,85.4206,VALID,0.0815089,VALID,24.6945,VALID,340,VALID,1.27891,
2011-10-08, 02:03:04,VALID,1003.95,VALID,0,VALID,85.6113,VALID,0,VALID,24.6342,VALID,350,VALID,1.01016,
2011-10-08, 02:04:04,VALID,1004,VALID,0,VALID,85.6266,VALID,0,VALID,24.6556,VALID,351,VALID,1.16875,
2011-10-08, 02:05:04,VALID,1003.98,VALID,0,VALID,86.3666,VALID,0.0815089,VALID,24.5953,VALID,321,VALID,0.677734,
2011-10-08, 02:06:04,VALID,1004,VALID,0,VALID,87.1218,VALID,0.0815089,VALID,24.5758,VALID,354,VALID,0.498828,
2011-10-08, 02:07:04,VALID,1003.98,VALID,0,VALID,87.1523,VALID,0.0815089,VALID,24.5388,VALID,336,VALID,0.781641,
2011-10-08, 02:08:04,VALID,1004,VALID,0,VALID,87.8618,VALID,0.0815089,VALID,24.4785,VALID,335,VALID,0.451172,
2011-10-08, 02:09:04,VALID,1004,VALID,0,VALID,87.8847,VALID,0,VALID,24.4396,VALID,341,VALID,0.649219,
2011-10-08, 02:10:04,VALID,1003.98,VALID,0,VALID,88.4798,VALID,0,VALID,24.3812,VALID,348,VALID,0.615625,
2011-10-08, 02:11:04,VALID,1003.97,VALID,0,VALID,88.7162,VALID,0,VALID,24.3441,VALID,354,VALID,0.740234,
2011-10-08, 02:12:04,VALID,1003.99,VALID,0,VALID,89.0367,VALID,0,VALID,24.2857,VALID,349,VALID,0.731641,
2011-10-08, 02:13:04,VALID,1003.99,VALID,0,VALID,89.1969,VALID,0,VALID,24.2273,VALID,340,VALID,0.821484,
2011-10-08, 02:14:04,VALID,1003.99,VALID,0,VALID,89.7614,VALID,0,VALID,24.1263,VALID,345,VALID,0.988672,
2011-10-08, 02:15:04,VALID,1003.99,VALID,0,VALID,90.0666,VALID,0.0815089,VALID,24.13,VALID,345,VALID,0.584766,
2011-10-08, 02:16:04,VALID,1004,VALID,0,VALID,90.0818,VALID,0.0815089,VALID,24.0503,VALID,345,VALID,0.676172,
2011-10-08, 02:17:04,VALID,1003.98,VALID,0,VALID,90.5396,VALID,0.0815089,VALID,24.0326,VALID,344,VALID,0.529297,
2011-10-08, 02:18:04,VALID,1003.99,VALID,0,VALID,91.249,VALID,0.0815089,VALID,23.9742,VALID,344,VALID,0.537891,
2011-10-08, 02:19:04,VALID,1004.01,VALID,0,VALID,91.5542,VALID,0.0815089,VALID,23.8946,VALID,344,VALID,0.217187,
2011-10-08, 02:20:04,VALID,1004.02,VALID,0,VALID,91.8136,VALID,0,VALID,23.8167,VALID,344,VALID,0.00664063,
2011-10-08, 02:21:04,VALID,1004.01,VALID,0,VALID,91.9433,VALID,0,VALID,23.7583,VALID,345,VALID,0.197656,
2011-10-08, 02:22:04,VALID,1004,VALID,0,VALID,92.1264,VALID,0.0815089,VALID,23.7194,VALID,345,VALID,0.346094,
2011-10-08, 02:23:04,VALID,1004,VALID,0,VALID,92.3781,VALID,0,VALID,23.6823,VALID,345,VALID,0.225,
2011-10-08, 02:24:04,VALID,1004,VALID,0,VALID,92.5383,VALID,0,VALID,23.6434,VALID,357,VALID,0.499219,
2011-10-08, 02:25:04,VALID,1004.01,VALID,0,VALID,92.6528,VALID,0,VALID,23.6239,VALID,16,VALID,0.363281,
2011-10-08, 02:26:04,VALID,1004.02,VALID,0,VALID,92.6451,VALID,0,VALID,23.6239,VALID,83,VALID,0.229687,
2011-10-08, 02:27:04,VALID,1004.02,VALID,0,VALID,92.5917,VALID,0.0815089,VALID,23.6221,VALID,83,VALID,0.3125,
2011-10-08, 02:28:04,VALID,1003.98,VALID,0,VALID,92.6299,VALID,0,VALID,23.6434,VALID,83,VALID,0.376953,
2011-10-08, 02:29:04,VALID,1003.98,VALID,0,VALID,92.5612,VALID,0.0815089,VALID,23.6026,VALID,83,VALID,0.340234,
2011-10-08, 02:30:04,VALID,1003.98,VALID,0,VALID,92.4773,VALID,0,VALID,23.6239,VALID,82,VALID,0.179688,
2011-10-08, 02:31:04,VALID,1003.98,VALID,0,VALID,92.5154,VALID,0,VALID,23.6221,VALID,82,VALID,0.154687,
2011-10-08, 02:32:04,VALID,1003.97,VALID,0,VALID,92.4544,VALID,0.0815089,VALID,23.6026,VALID,82,VALID,0,
2011-10-08, 02:33:04,VALID,1003.95,VALID,0,VALID,92.4315,VALID,0,VALID,23.6044,VALID,82,VALID,0,
2011-10-08, 02:34:04,VALID,1003.98,VALID,0,VALID,92.4163,VALID,0,VALID,23.6044,VALID,82,VALID,0,
2011-10-08, 02:35:04,VALID,1003.95,VALID,0,VALID,92.6375,VALID,0,VALID,23.6257,VALID,82,VALID,0,
2011-10-08, 02:36:04,VALID,1003.95,VALID,0,VALID,92.7672,VALID,0,VALID,23.6044,VALID,82,VALID,0,
2011-10-08, 02:37:04,VALID,1003.94,VALID,0,VALID,92.7519,VALID,0,VALID,23.585,VALID,82,VALID,0,
2011-10-08, 02:38:04,VALID,1003.96,VALID,0,VALID,92.4697,VALID,0,VALID,23.5655,VALID,82,VALID,0.195703,
2011-10-08, 02:39:04,VALID,1003.98,VALID,0,VALID,92.3857,VALID,0,VALID,23.5655,VALID,82,VALID,0.494531,
2011-10-08, 02:40:04,VALID,1003.97,VALID,0,VALID,92.2561,VALID,0,VALID,23.546,VALID,59,VALID,0.614062,
2011-10-08, 02:41:04,VALID,1003.98,VALID,0,VALID,92.401,VALID,0,VALID,23.546,VALID,58,VALID,0.0871094,
2011-10-08, 02:42:04,VALID,1003.99,VALID,0,VALID,92.7062,VALID,0,VALID,23.5266,VALID,40,VALID,0.419141,
2011-10-08, 02:43:04,VALID,1004.01,VALID,0,VALID,92.668,VALID,0,VALID,23.5053,VALID,40,VALID,0.394922,
2011-10-08, 02:44:04,VALID,1004.01,VALID,0,VALID,92.8358,VALID,0,VALID,23.5071,VALID,36,VALID,0.208594,
2011-10-08, 02:45:04,VALID,1004,VALID,0,VALID,93.0266,VALID,0,VALID,23.4877,VALID,32,VALID,0.503125,
2011-10-08, 02:46:04,VALID,1004.04,VALID,0,VALID,93.0647,VALID,0,VALID,23.4487,VALID,31,VALID,0.177734,
2011-10-08, 02:47:04,VALID,1004.02,VALID,0,VALID,93.3394,VALID,0,VALID,23.4275,VALID,31,VALID,0.357812,
2011-10-08, 02:48:04,VALID,1004.02,VALID,0,VALID,93.2478,VALID,0,VALID,23.447,VALID,348,VALID,0.336719,
2011-10-08, 02:49:04,VALID,1004.03,VALID,0,VALID,93.2402,VALID,0,VALID,23.4293,VALID,16,VALID,0.367578,
2011-10-08, 02:50:04,VALID,1004.02,VALID,0,VALID,93.1181,VALID,0,VALID,23.4098,VALID,16,VALID,0.254687,
2011-10-08, 02:51:04,VALID,1004.05,VALID,0,VALID,93.2402,VALID,0,VALID,23.3904,VALID,17,VALID,0.163281,
2011-10-08, 02:52:04,VALID,1004.05,VALID,0,VALID,93.2936,VALID,0,VALID,23.3709,VALID,18,VALID,0.290625,
2011-10-08, 02:53:04,VALID,1004.05,VALID,0,VALID,93.3928,VALID,0,VALID,23.3514,VALID,18,VALID,0.120703,
2011-10-08, 02:54:04,VALID,1004.03,VALID,0,VALID,93.4004,VALID,0,VALID,23.3532,VALID,18,VALID,0,
2011-10-08, 02:55:04,VALID,1004.05,VALID,0,VALID,93.6369,VALID,0,VALID,23.3125,VALID,18,VALID,0,
2011-10-08, 02:56:04,VALID,1004.06,VALID,0,VALID,93.7055,VALID,0,VALID,23.3125,VALID,18,VALID,0.2125,
2011-10-08, 02:57:04,VALID,1004.06,VALID,0,VALID,93.5148,VALID,0,VALID,23.2524,VALID,38,VALID,0.5375,
2011-10-08, 02:58:04,VALID,1004.06,VALID,0,VALID,92.8816,VALID,0,VALID,23.2347,VALID,39,VALID,0.314844,
2011-10-08, 02:59:04,VALID,1004.06,VALID,0,VALID,92.9274,VALID,0,VALID,23.2347,VALID,39,VALID,0.0804688,
2011-10-08, 03:00:04,VALID,1004.04,VALID,0,VALID,92.6604,VALID,0,VALID,23.2541,VALID,39,VALID,0.382422,
2011-10-08, 03:01:04,VALID,1004.04,VALID,0,VALID,91.4321,VALID,0,VALID,23.2347,VALID,38,VALID,0.451953,
2011-10-08, 03:02:04,VALID,1004.01,VALID,0,VALID,90.0513,VALID,0,VALID,23.2948,VALID,37,VALID,0.517969,
2011-10-08, 03:03:04,VALID,1004.02,VALID,0,VALID,89.975,VALID,0,VALID,23.4098,VALID,11,VALID,0.276563,
2011-10-08, 03:04:04,VALID,1004,VALID,0,VALID,91.1956,VALID,0.0815089,VALID,23.4877,VALID,16,VALID,0.26875,
2011-10-08, 03:05:04,VALID,1003.97,VALID,0,VALID,89.6317,VALID,0,VALID,23.4877,VALID,201,VALID,0.393359,
2011-10-08, 03:06:04,VALID,1003.97,VALID,0,VALID,86.5573,VALID,0,VALID,23.5266,VALID,25,VALID,0.426172,
2011-10-08, 03:07:04,VALID,1003.95,VALID,0,VALID,85.268,VALID,0,VALID,23.6646,VALID,24,VALID,0.912109,
2011-10-08, 03:08:04,VALID,1003.96,VALID,0,VALID,83.6278,VALID,0,VALID,23.7407,VALID,15,VALID,0.698828,
2011-10-08, 03:09:04,VALID,1003.96,VALID,0,VALID,82.9336,VALID,0,VALID,23.8769,VALID,360,VALID,1.21328,
2011-10-08, 03:10:04,VALID,1003.95,VALID,0,VALID,82.6131,VALID,0,VALID,24.0521,VALID,10,VALID,1.1332,
2011-10-08, 03:11:04,VALID,1003.98,VALID,0,VALID,83.1395,VALID,0,VALID,24.2078,VALID,23,VALID,0.719141,
2011-10-08, 03:12:04,VALID,1003.93,VALID,0,VALID,82.0028,VALID,0,VALID,24.2468,VALID,18,VALID,0.95,
2011-10-08, 03:13:04,VALID,1003.97,VALID,0,VALID,81.568,VALID,0,VALID,24.3052,VALID,17,VALID,0.832812,
2011-10-08, 03:14:04,VALID,1003.94,VALID,0,VALID,83.6202,VALID,0,VALID,24.3441,VALID,28,VALID,0.415625,
2011-10-08, 03:15:04,VALID,1003.95,VALID,0,VALID,83.7575,VALID,0,VALID,24.3228,VALID,35,VALID,0.623438,
2011-10-08, 03:16:04,VALID,1003.91,VALID,0,VALID,80.1414,VALID,0,VALID,24.3459,VALID,25,VALID,2.50078,
2011-10-08, 03:17:04,VALID,1003.91,VALID,0,VALID,80.0651,VALID,0,VALID,24.599,VALID,13,VALID,1.08945,
2011-10-08, 03:18:04,VALID,1003.89,VALID,0,VALID,80.8661,VALID,0.0815089,VALID,24.6732,VALID,360,VALID,1.34375,
2011-10-08, 03:19:04,VALID,1003.9,VALID,0,VALID,80.6449,VALID,0.0815089,VALID,24.7529,VALID,5,VALID,1.24258,
2011-10-08, 03:20:04,VALID,1003.9,VALID,0,VALID,80.1109,VALID,0.0815089,VALID,24.751,VALID,11,VALID,1.34375,
2011-10-08, 03:21:04,VALID,1003.9,VALID,0,VALID,79.8515,VALID,0.0815089,VALID,24.8289,VALID,14,VALID,1.34023,
2011-10-08, 03:22:04,VALID,1003.89,VALID,0,VALID,80.027,VALID,0.0815089,VALID,24.9068,VALID,32,VALID,1.19062,
2011-10-08, 03:23:04,VALID,1003.87,VALID,0,VALID,78.3486,VALID,0.0815089,VALID,25.045,VALID,18,VALID,1.80273,
2011-10-08, 03:24:04,VALID,1003.92,VALID,0,VALID,77.8985,VALID,0.0815089,VALID,25.1599,VALID,360,VALID,1.37852,
2011-10-08, 03:25:04,VALID,1003.9,VALID,0,VALID,78.4325,VALID,0.0815089,VALID,25.2378,VALID,17,VALID,1.52617,
2011-10-08, 03:26:04,VALID,1003.9,VALID,0,VALID,77.929,VALID,0.0815089,VALID,25.1969,VALID,5,VALID,1.37891,
2011-10-08, 03:27:04,VALID,1003.94,VALID,0,VALID,77.7764,VALID,0.0815089,VALID,25.1599,VALID,12,VALID,1.80117,
2011-10-08, 03:28:04,VALID,1003.93,VALID,0,VALID,76.6474,VALID,0.0815089,VALID,25.1988,VALID,21,VALID,2.14648,
2011-10-08, 03:29:04,VALID,1003.99,VALID,0,VALID,77.6925,VALID,0.0815089,VALID,25.2378,VALID,11,VALID,1.86758,
2011-10-08, 03:30:04,VALID,1004.01,VALID,0,VALID,77.3492,VALID,0.0815089,VALID,25.1794,VALID,354,VALID,1.46172,
2011-10-08, 03:31:04,VALID,1004.04,VALID,0,VALID,78.2952,VALID,0.0815089,VALID,25.1599,VALID,17,VALID,1.23008,
2011-10-08, 03:32:04,VALID,1004.09,VALID,0,VALID,77.8604,VALID,0,VALID,25.1404,VALID,350,VALID,2.46289,
2011-10-08, 03:33:04,VALID,1004.11,VALID,0,VALID,77.7307,VALID,0.0815089,VALID,25.1988,VALID,9,VALID,2.3832,
2011-10-08, 03:34:04,VALID,1004.11,VALID,0,VALID,77.5399,VALID,0.0815089,VALID,25.2183,VALID,7,VALID,2.40352,
2011-10-08, 03:35:04,VALID,1004.11,VALID,0,VALID,78.5317,VALID,0.0815089,VALID,25.2183,VALID,351,VALID,2.12383,
2011-10-08, 03:36:04,VALID,1004.14,VALID,0,VALID,79.6226,VALID,0.0815089,VALID,25.1988,VALID,3,VALID,2.11094,
2011-10-08, 03:37:04,VALID,1004.16,VALID,0,VALID,79.3251,VALID,0.163018,VALID,25.1423,VALID,11,VALID,2.60703,
2011-10-08, 03:38:04,VALID,1004.14,VALID,0,VALID,80.0804,VALID,0.0815089,VALID,25.0996,VALID,359,VALID,2.8043,
2011-10-08, 03:39:04,VALID,1004.18,VALID,0,VALID,80.8356,VALID,0.0815089,VALID,25.082,VALID,8,VALID,1.85664,
2011-10-08, 03:40:04,VALID,1004.13,VALID,0,VALID,81.0721,VALID,0.0815089,VALID,25.0236,VALID,351,VALID,1.96563,
2011-10-08, 03:41:04,VALID,1004.17,VALID,0,VALID,80.6373,VALID,0.0815089,VALID,25.0255,VALID,360,VALID,1.9457,